Regional Weather Roundup
Issued by NWS State College, PA

Home | Current Version | Previous Version | Text Only | Print | Product List | Glossary On
Versions: 1 2 3 4 5 6 7 8 9 10 11 12 13 14 15 16 17 18 19 20 21 22 23 24 25 26 27 28 29 30 31 32 33 34 35 36 37 38 39 40 41 42 43 44 45 46 47 48 49 50
000
ASUS41 KCTP 310510
RWRCTP

REGIONAL WEATHER ROUNDUP
NATIONAL WEATHER SERVICE STATE COLLEGE PA
100 AM EDT FRI JUL 31 2015

Note: "fair" indicates few or no clouds below 12,000 feet with no
significant weather and/or obstructions to visibility.

* = STATION THAT DOES NOT REPORT PRECIPITATION /E.G. RAIN...SNOW...ETC/
    THUNDER OR FOG.

PAZ002>004-007>009-013>016-020>023-029>032-310600-
WESTERN PENNSYLVANIA

CITY           SKY/WX    TMP DP  RH WIND       PRES   REMARKS
ERIE           PTCLDY    71  61  70 SW8       29.94R
MEADVILLE      MOCLDY    68  57  68 SW5       29.99R
FRANKLIN*      CLEAR     64  54  68 SW8       30.00S
NEW CASTLE     FAIR      65  60  83 CALM      30.00S
BEAVER COUNTY  NOT AVBL
BUTLER*        CLEAR     63  57  82 CALM      30.01F
PITTSBURGH INT PTCLDY    70  58  65 W5        30.00S
PITTSBURGH     PTCLDY    71  55  56 W7        30.00S
INDIANA*       MOCLDY    68  63  83 CALM      30.03S
LATROBE        NOT AVBL
WASHINGTON CO* NOT AVBL
$$

PAZ004>006-010>012-017>019-024>028-033>037-041-042-045-046-049>053-310600-
CENTRAL PENNSYLVANIA

CITY           SKY/WX    TMP DP  RH WIND       PRES   REMARKS
BRADFORD       CLEAR     55  53  93 CALM      29.99S
DUBOIS         CLEAR     63  53  70 SW5       29.99S
CLEARFIELD     CLEAR     61  55  81 SW3       30.00R
JOHNSTOWN      PTCLDY    65  53  65 CALM      30.04S
ALTOONA        PTCLDY    65  57  75 W5        30.00F
STATE COLLEGE  CLEAR     70  56  61 W5        29.98S
WILLIAMSPORT   CLEAR     68  61  78 NW7       29.91S
SELINSGROVE    CLEAR     63  61  93 CALM      29.93S
FT INDIANTOWN  CLEAR     76  59  56 VRB5      29.92R
CAPITAL CITY   CLEAR     74  60  61 W5        29.92R
HARRISBURG     PTCLDY    75  61  61 NW5       29.91R
YORK           PTCLDY    64  62  93 W3        29.93R
$$

PAZ038>040-043-044-047-048-054-055-060>062-067>071-310600-
EASTERN PENNSYLVANIA

CITY           SKY/WX    TMP DP  RH WIND       PRES   REMARKS
SCRANTON       CLEAR     68  61  78 CALM      29.92R
MOUNT POCONO   CLEAR     62  58  86 NW3       29.95S
ALLENTOWN      PTCLDY    70  66  87 CALM      29.89R
QUAKERTOWN*    MOCLDY    68  68 100 CALM      29.90R
READING        CLEAR     71  64  78 NW6       29.89S
LANCASTER      CLEAR     71  63  75 W6        29.91R
COATESVILLE    CLEAR     68  68 100 W8        29.92S
POTTSTOWN      CLEAR     71  69  93 CALM      29.90R
BLUE BELL      PTCLDY    72  70  94 CALM      29.87S
DOYLESTOWN     PTCLDY    71  71 100 CALM      29.87S
WILLOW GROVE   NOT AVBL
NORTH PHILA    PTCLDY    75  69  81 W5        29.88S
PHILADELPHIA   PTCLDY    77  73  87 W8        29.88S
$$


USA.gov is the U.S. government's official web portal to all federal, state and local government web resources and services.